Regional Weather Roundup
Issued by NWS Jackson, KY

Home | Current Version | Previous Version | Text Only | Print | Product List | Glossary Off
Versions: 1 2 3 4 5 6 7 8 9 10 11 12 13 14 15 16 17 18 19 20 21 22 23 24 25 26 27 28 29 30 31 32 33 34 35 36 37 38 39 40 41 42 43 44 45 46 47 48 49 50

000
ASUS43 KJKL 211310
RWRJKL

EAST KENTUCKY HOURLY WEATHER ROUNDUP
NATIONAL WEATHER SERVICE JACKSON KY
900 AM EDT TUE OCT 21 2014

NOTE: "FAIR" INDICATES FEW OR NO CLOUDS BELOW 12,000 FEET WITH
NO SIGNIFICANT WEATHER AND/OR OBSTRUCTIONS TO VISIBILITY.

* THESE REPORTS ARE NOT UNDER NWS QUALITY CONTROL AND MAY NOT
  REPORT WEATHER SUCH AS PRECIPITATION AND FOG.

KYZ079-080-083-085-087-088-110-112-115-119-120-211400
...EASTERN KENTUCKY...

CITY           SKY/WX    TMP DP  RH WIND       PRES   REMARKS
JACKSON        CLOUDY    50  48  93 VRB6      29.99R FOG
LONDON         MOSUNNY   47  44  90 CALM      30.01R
SOMERSET*      FOG       45  45 100 CALM      30.04R VSB 1
MONTICELLO*    SUNNY     46  46 100 CALM      30.05R FOG
WILLIAMSBURG*  SUNNY     48  48 100 CALM      30.02R
MIDDLESBORO*   SUNNY     45  45  99 CALM      30.01R
HARLAN APT*    CLOUDY    50  50 100 W3        30.00R
BLACK MTN*       N/A     45  45 100 SW5         N/A
PIKEVILLE APT* CLOUDY    50  48  93 CALM      29.97R
BIG SANDY*     CLOUDY    51  49  93 W5        29.97R
MOREHEAD APT*  CLOUDY    50  48  93 NW7       30.00R
$$

KYZ035-036-041-042-044-050-067-078-099-211400
...CENTRAL KENTUCKY...

CITY           SKY/WX    TMP DP  RH WIND       PRES   REMARKS
MT STERLING*   CLOUDY    50  46  87 NW6       30.01R FOG
FLEMING/MASON* PTSUNNY   48  48 100 NW8       30.00R
DANVILLE*      CLOUDY    50  46  87 NW8       30.04R
RICHMOND*      CLOUDY    50  46  87 W5        30.00R
LEXINGTON      CLOUDY    51  47  86 NW6       30.01R
FRANKFORT      CLOUDY    49  46  90 NW7       30.02R
$$

KYZ091>093-OHZ055-061-077-WVZ005-015-034-035-042-211400
...SOUTHERN OHIO/WEST VIRGINIA...

CITY           SKY/WX    TMP DP  RH WIND       PRES   REMARKS
COVINGTON      PTSUNNY   49  45  86 NW7       30.01R
COLUMBUS       CLOUDY    49  47  93 NW13      29.94R FOG
DAYTON         PTSUNNY   49  43  80 NW14      30.00R
WILMINGTON     CLOUDY    48  43  82 NW12      29.97R
HUNTINGTON     CLOUDY    51  49  92 VRB6      29.94R
CHARLESTON     CLOUDY    53  50  89 SW8       29.92R
PINEVILLE*     CLOUDY    49  49 100 MISG      30.00R
BECKLEY        CLOUDY    49  45  86 SW7       29.94S
BLUEFIELD      PTSUNNY   51  46  83 W6        29.96R
$$

VAZ002-007-008-TNZ017-027-036-066-071-211400
...SOUTHWEST VIRGINIA/EAST TENNESSEE...

CITY           SKY/WX    TMP DP  RH WIND       PRES   REMARKS
WISE*          CLOUDY    50  50 100 SW8       30.00R FOG
JONESVILLE*    FOG       46  46 100 CALM      30.02R VSB<1/4
ABINGDON*      CLOUDY    53  52  99 W5        29.99R FOG
BRISTOL        PTSUNNY   54  51  90 W3        29.99R
KNOXVILLE      MOSUNNY   53  49  86 SW6       30.01R
OAK RIDGE      SUNNY     50  47  89 CALM      30.03R
CROSSVILLE     SUNNY     50  47  89 W7        30.04R
NASHVILLE      SUNNY     48  47  96 CALM      30.06R
$$

...KEY TO REMARKS...
VSB - VISIBILITY IN MILES
WCI - WIND CHILL INDEX
HX  - HEAT INDEX

$$



USA.gov is the U.S. government's official web portal to all federal, state and local government web resources and services.